Tracking 29892 objects as of 21-Nov-2024
HD Live streaming from Space Station
objects crossing your sky now

SL-14 DEB

Track SL-14 DEB now!
10-day predictions


NORAD ID: 26030
Int'l Code: 1991-068AU
Perigee: 1,333.9 km
Apogee: 1,467.6 km
Inclination: 82.7 °
Period: 113.6 minutes
Semi major axis: 7771 km
RCS: 0.0026 m2 (small)
Launch date: September 28, 1991
Source: Commonwealth of Independent States (former USSR) (CIS)
Launch site: PLESETSK MISSILE AND SPACE COMPLEX (PKMTR)

Note: This is SATELLITE DEBRIS
Your satellite tracking list
Your tracking list is empty




NASA's NSSDC Master Catalog

Two Line Element Set (TLE):
1 26030U 91068AU  24324.00121750  .00000271  00000-0  13423-2 0  9991
2 26030  82.6796  43.1653 0086042 158.6800  15.2977 12.67140489519751
Source of the keplerian elements: AFSPC